Regional Weather Roundup
Issued by NWS

Home | Current Version | Previous Version | Text Only | Print | Product List | Glossary Off
Versions: 1 2 3 4 5 6 7 8 9 10 11 12 13 14 15 16 17 18 19 20 21 22 23 24 25 26 27 28 29 30 31 32 33 34 35 36 37 38 39 40 41 42 43 44 45 46 47 48 49 50

000
ASUS45 KCYS 300710
RWRWY

WYOMING REGIONAL WEATHER ROUNDUP
NATIONAL WEATHER SERVICE CHEYENNE WY
100 AM MDT TUE JUN 30 2015

NOTE:  "FAIR" INDICATES FEW OR NO CLOUDS BELOW 12,000 FEET
WITH NO SIGNIFICANT WEATHER AND/OR OBSTRUCTIONS TO VISIBILITY.

WYZ001-300800-
YELLOWSTONE NATIONAL PARK

CITY           SKY/WX    TMP DP  RH WIND       PRES   REMARKS
LK YELLOWSTONE   N/A     57  51  80 VRB3      30.43F
W YELLOWSTONE  NOT AVBL

$$
WYZ002>013-054>058-071-098>099-300800-
NORTHERN WYOMING

CITY           SKY/WX    TMP DP  RH WIND       PRES   REMARKS
JACKSON        FAIR      66  52  59 N9        30.30F
CODY           CLOUDY    73  52  46 SW17G28   30.19F
GREYBULL       FAIR      83  50  31 N16       30.06R
WORLAND        FAIR      75  53  46 NW8       30.10R
SHERIDAN       FAIR      76  52  43 W9        30.10R
BUFFALO        FAIR      71  52  50 NW15      30.16R
GILLETTE       FAIR      68  55  63 S8        30.08F
HULETT         FAIR      64  52  63 SW6       30.09S
NEWCASTLE      FAIR      64  52  63 E3        30.11F

$$
WYZ014>020-022>026-101>103-300800-
CENTRAL WYOMING

CITY           SKY/WX    TMP DP  RH WIND       PRES   REMARKS
BIG PINEY      FAIR      70  46  42 N15       30.33R
PINEDALE       FAIR      68  46  45 W8        30.34F
DUBOIS         PTSUNNY   59  50  72 MISG      30.42R
LANDER         FAIR      69  45  41 CALM      30.16R
RIVERTON       FAIR      71  45  39 NW8       30.18R
CASPER         FAIR      59  47  64 N7        30.18S
DOUGLAS        FAIR      63  51  65 CALM      30.17S

$$
WYZ021-027>030-104>119-300800-
SOUTHERN WYOMING

CITY           SKY/WX    TMP DP  RH WIND       PRES   REMARKS
EVANSTON       FAIR      67  43  41 SE6       30.29F
KEMMERER       FAIR      63  43  48 N9        30.32S
FORT BRIDGER   SUNNY     70  39  32 W8        30.31S
ROCK SPRINGS   FAIR      72  39  30 SE9       30.26F
DIXON          FAIR      65  42  42 E6        30.29S
RAWLINS        FAIR      62  43  49 E7        30.29F
SARATOGA       FAIR      63  45  51 S6        30.32S
LARAMIE        FAIR      58  46  64 S10       30.34F
CHEYENNE       FAIR      60  47  61 W9        30.25F
TORRINGTON     FAIR      63  54  72 E9        30.10F
PINE BLUFFS    FAIR      59  55  88 CALM      30.20S

$$


USA.gov is the U.S. government's official web portal to all federal, state and local government web resources and services.